AIC3554 VOBL-VIDP

Flight info

Callsign AIC3554
Flight time N/A
Altitude 37000
Route LATID8A LATID Q22 HIA/N0448F380 W20 BAVOX BAVOX7C
Aircraft A320/M-SDE3FGHIRWY/LB1

Departure

Time 2026-05-07 10:33
Airport Kempegowda International Airport Bengaluru (VOBL)

Arrival

Time N/A
Airport Indira Gandhi International Airport (VIDP)
Time Latitude Longitude Altitude Speed Heading
2026-05-07 10:09 13.20159 77.71241 3012 ft 0 kts 181°
2026-05-07 10:22 13.20177 77.71241 3042 ft 4 kts 178°
2026-05-07 10:22 13.20204 77.71239 3019 ft 4 kts 169°
2026-05-07 10:22 13.20230 77.71231 3011 ft 4 kts 141°
2026-05-07 10:22 13.20240 77.71217 3018 ft 0 kts 90°
2026-05-07 10:25 13.20240 77.71230 3011 ft 3 kts 90°
2026-05-07 10:26 13.20243 77.71248 3011 ft 0 kts 76°
2026-05-07 10:27 13.20245 77.71253 3011 ft 2 kts 65°
2026-05-07 10:27 13.20261 77.71267 3011 ft 5 kts 28°
2026-05-07 10:27 13.20308 77.71274 3011 ft 9 kts
2026-05-07 10:28 13.20387 77.71276 3011 ft 14 kts 360°
2026-05-07 10:28 13.20497 77.71269 3011 ft 17 kts 332°
2026-05-07 10:28 13.20521 77.71149 3011 ft 20 kts 272°
2026-05-07 10:28 13.20528 77.70994 3011 ft 24 kts 273°
2026-05-07 10:29 13.20530 77.70810 3016 ft 27 kts 269°
2026-05-07 10:29 13.20529 77.70605 3011 ft 31 kts 269°
2026-05-07 10:29 13.20533 77.70377 3011 ft 33 kts 273°
2026-05-07 10:30 13.20538 77.69870 3011 ft 38 kts 270°
2026-05-07 10:30 13.20540 77.69596 3011 ft 39 kts 269°
2026-05-07 10:30 13.20542 77.69309 3011 ft 41 kts 270°
2026-05-07 10:30 13.20544 77.69012 3011 ft 42 kts 270°
2026-05-07 10:31 13.20546 77.68726 3011 ft 25 kts 270°
2026-05-07 10:31 13.20580 77.68624 3011 ft 12 kts 330°
2026-05-07 10:31 13.20607 77.68617 3012 ft 0 kts 351°
2026-05-07 10:32 13.20608 77.68616 3012 ft 1 kts 339°
2026-05-07 10:32 13.20622 77.68615 3012 ft 4 kts 356°
2026-05-07 10:32 13.20664 77.68622 3011 ft 9 kts 17°
2026-05-07 10:32 13.20715 77.68674 3011 ft 13 kts 79°
2026-05-07 10:33 13.20717 77.68845 3014 ft 54 kts 88°
2026-05-07 10:33 13.20714 77.69545 3011 ft 136 kts 89°
2026-05-07 10:33 13.20720 77.70705 3236 ft 179 kts 91°
2026-05-07 10:33 13.20830 77.72028 3817 ft 190 kts 75°
2026-05-07 10:34 13.21246 77.73096 4162 ft 198 kts 62°
2026-05-07 10:34 13.21946 77.74387 4542 ft 218 kts 61°
2026-05-07 10:34 13.22726 77.75825 4890 ft 242 kts 61°
2026-05-07 10:34 13.23588 77.77411 5311 ft 263 kts 61°
2026-05-07 10:35 13.24495 77.79081 5999 ft 271 kts 61°
2026-05-07 10:35 13.25417 77.80780 6799 ft 274 kts 61°
2026-05-07 10:35 13.26473 77.82413 7571 ft 278 kts 44°
2026-05-07 10:35 13.28147 77.83395 8319 ft 284 kts 13°
2026-05-07 10:36 13.30127 77.83544 9105 ft 287 kts
2026-05-07 10:36 13.32120 77.83316 9909 ft 291 kts 346°
2026-05-07 10:36 13.34049 77.82538 10340 ft 310 kts 332°
2026-05-07 10:36 13.35982 77.81393 10629 ft 329 kts 331°
2026-05-07 10:37 13.37994 77.80200 10880 ft 337 kts 331°
2026-05-07 10:37 13.40003 77.79018 10921 ft 337 kts 331°
2026-05-07 10:37 13.42041 77.77826 10919 ft 337 kts 332°
2026-05-07 10:37 13.44084 77.76637 11066 ft 341 kts 332°
2026-05-07 10:38 13.46151 77.75438 11824 ft 342 kts 331°
2026-05-07 10:38 13.48228 77.74232 12534 ft 345 kts 331°
2026-05-07 10:38 13.50340 77.73006 13201 ft 350 kts 331°
2026-05-07 10:38 13.52584 77.72018 13825 ft 354 kts 343°
2026-05-07 10:39 13.55017 77.71571 14379 ft 358 kts 356°
2026-05-07 10:39 13.57515 77.71696 14940 ft 362 kts
2026-05-07 10:39 13.60040 77.71999 15509 ft 366 kts
2026-05-07 10:39 13.62581 77.72303 16071 ft 369 kts
2026-05-07 10:40 13.65140 77.72608 16627 ft 372 kts
2026-05-07 10:40 13.67731 77.72915 17181 ft 376 kts
2026-05-07 10:40 13.70339 77.73220 17735 ft 379 kts
2026-05-07 10:40 13.72946 77.73524 18253 ft 382 kts
2026-05-07 10:41 13.75595 77.73833 18707 ft 385 kts
2026-05-07 10:41 13.78270 77.74144 19163 ft 388 kts
2026-05-07 10:41 13.80970 77.74459 19615 ft 391 kts
2026-05-07 10:41 13.83696 77.74780 20068 ft 394 kts
2026-05-07 10:42 13.86433 77.75101 20499 ft 398 kts
2026-05-07 10:42 13.89196 77.75428 20927 ft 401 kts
2026-05-07 10:42 13.91975 77.75759 21350 ft 404 kts
2026-05-07 10:42 13.94775 77.76091 21765 ft 407 kts
2026-05-07 10:43 13.97566 77.76668 22164 ft 411 kts 15°
2026-05-07 10:43 14.00292 77.77635 22557 ft 415 kts 18°
2026-05-07 10:43 14.02987 77.78621 22961 ft 418 kts 18°
2026-05-07 10:43 14.05732 77.79625 23356 ft 421 kts 18°
2026-05-07 10:44 14.08502 77.80635 23690 ft 423 kts 18°
2026-05-07 10:44 14.11289 77.81650 24017 ft 425 kts 18°
2026-05-07 10:44 14.14083 77.82665 24350 ft 427 kts 18°
2026-05-07 10:44 14.16898 77.83685 24681 ft 429 kts 18°
2026-05-07 10:45 14.19722 77.84707 25017 ft 432 kts 18°
2026-05-07 10:45 14.22559 77.85738 25359 ft 434 kts 18°
2026-05-07 10:45 14.25416 77.86779 25679 ft 436 kts 18°
2026-05-07 10:45 14.28282 77.87825 26003 ft 438 kts 18°
2026-05-07 10:46 14.31165 77.88877 26319 ft 440 kts 18°
2026-05-07 10:46 14.34051 77.89930 26641 ft 442 kts 18°
2026-05-07 10:46 14.36958 77.90990 26955 ft 444 kts 18°
2026-05-07 10:46 14.39878 77.92055 27255 ft 446 kts 18°
2026-05-07 10:47 14.42805 77.93122 27553 ft 448 kts 18°
2026-05-07 10:47 14.45750 77.94192 27845 ft 450 kts 18°
2026-05-07 10:47 14.48726 77.95061 28128 ft 450 kts 10°
2026-05-07 10:47 14.51826 77.95600 28414 ft 452 kts
2026-05-07 10:48 14.54939 77.96120 28698 ft 454 kts
2026-05-07 10:48 14.58069 77.96643 28991 ft 456 kts
2026-05-07 10:48 14.61216 77.97172 29284 ft 459 kts
2026-05-07 10:48 14.64371 77.97706 29563 ft 461 kts
2026-05-07 10:49 14.67550 77.98245 29843 ft 463 kts
2026-05-07 10:49 14.70737 77.98785 30081 ft 465 kts
2026-05-07 10:49 14.73937 77.99329 30302 ft 467 kts
2026-05-07 10:49 14.77148 77.99874 30520 ft 469 kts
2026-05-07 10:50 14.80370 78.00422 30740 ft 470 kts
2026-05-07 10:50 14.83606 78.00972 30964 ft 472 kts
2026-05-07 10:50 14.86849 78.01522 31183 ft 473 kts
2026-05-07 10:50 14.90095 78.02072 31493 ft 473 kts
2026-05-07 10:51 14.93337 78.02622 31820 ft 472 kts
2026-05-07 10:51 14.96570 78.03169 32149 ft 471 kts
2026-05-07 10:51 14.99762 78.03708 32463 ft 470 kts
2026-05-07 10:51 15.02985 78.04251 32790 ft 469 kts
2026-05-07 10:52 15.06205 78.04796 33130 ft 468 kts
2026-05-07 10:52 15.09419 78.05341 33466 ft 468 kts
2026-05-07 10:52 15.12637 78.05891 33816 ft 467 kts
2026-05-07 10:52 15.15838 78.06440 34100 ft 466 kts
2026-05-07 10:53 15.19032 78.06988 34370 ft 465 kts
2026-05-07 10:53 15.22221 78.07531 34640 ft 464 kts
2026-05-07 10:53 15.25404 78.08070 34912 ft 464 kts
2026-05-07 10:53 15.28590 78.08608 35175 ft 463 kts
2026-05-07 10:54 15.31770 78.09147 35438 ft 462 kts
2026-05-07 10:54 15.34942 78.09688 35687 ft 462 kts
2026-05-07 10:54 15.38109 78.10225 35935 ft 461 kts
2026-05-07 10:54 15.41276 78.10751 36177 ft 461 kts
2026-05-07 10:55 15.44442 78.11264 36415 ft 460 kts
2026-05-07 10:55 15.47607 78.11771 36642 ft 460 kts
2026-05-07 10:55 15.50760 78.12280 36868 ft 459 kts
2026-05-07 10:55 15.53920 78.12794 37095 ft 459 kts
2026-05-07 10:56 15.56014 78.13137 37243 ft 458 kts
2026-05-07 10:56 15.59163 78.13652 37474 ft 458 kts
2026-05-07 10:56 15.62311 78.14167 37679 ft 457 kts
2026-05-07 10:56 15.65453 78.14679 37803 ft 457 kts
2026-05-07 10:57 15.71724 78.15704 37830 ft 455 kts
2026-05-07 10:57 15.77943 78.16724 37820 ft 455 kts
2026-05-07 10:58 15.84206 78.17745 37825 ft 455 kts
2026-05-07 10:58 15.90462 78.18768 37824 ft 455 kts
2026-05-07 10:59 15.96713 78.19796 37829 ft 455 kts
2026-05-07 10:59 16.02972 78.20827 37836 ft 455 kts
2026-05-07 11:00 16.09228 78.21853 37844 ft 455 kts
2026-05-07 11:00 16.15491 78.22879 37851 ft 455 kts
2026-05-07 11:01 16.21747 78.23905 37853 ft 455 kts
2026-05-07 11:01 16.27954 78.24926 37867 ft 455 kts
2026-05-07 11:02 16.34206 78.25954 37870 ft 454 kts
2026-05-07 11:02 16.40449 78.26978 37867 ft 454 kts
2026-05-07 11:03 16.46684 78.27997 37874 ft 454 kts
2026-05-07 11:03 16.52919 78.29020 37872 ft 453 kts
2026-05-07 11:04 16.59153 78.30049 37872 ft 453 kts
2026-05-07 11:04 16.65378 78.31078 37882 ft 453 kts
2026-05-07 11:05 16.71562 78.32095 37884 ft 452 kts
2026-05-07 11:05 16.77777 78.33121 37884 ft 452 kts
2026-05-07 11:06 16.83992 78.34144 37883 ft 452 kts
2026-05-07 11:06 16.90209 78.35161 37886 ft 452 kts
2026-05-07 11:07 16.96421 78.36184 37893 ft 452 kts
2026-05-07 11:07 17.02631 78.37210 37894 ft 452 kts
2026-05-07 11:08 17.08832 78.38236 37902 ft 451 kts
2026-05-07 11:08 17.15044 78.39263 37901 ft 451 kts
2026-05-07 11:09 17.21250 78.40253 37908 ft 450 kts
2026-05-07 11:09 17.27447 78.39971 37904 ft 445 kts 350°
2026-05-07 11:10 17.33598 78.39123 37900 ft 445 kts 350°
2026-05-07 11:10 17.39709 78.38279 37879 ft 446 kts 350°
2026-05-07 11:11 17.45865 78.37424 37880 ft 446 kts 350°
2026-05-07 11:11 17.52022 78.36576 37881 ft 445 kts 350°
2026-05-07 11:12 17.58163 78.35729 37886 ft 445 kts 350°
2026-05-07 11:12 17.64312 78.34884 37892 ft 445 kts 350°
2026-05-07 11:13 17.70416 78.34041 37897 ft 445 kts 350°
2026-05-07 11:13 17.76560 78.33191 37902 ft 445 kts 350°
2026-05-07 11:14 17.82704 78.32338 37902 ft 445 kts 350°
2026-05-07 11:14 17.88837 78.31486 37898 ft 444 kts 350°
2026-05-07 11:15 17.94971 78.30638 37898 ft 444 kts 350°
2026-05-07 11:15 18.01098 78.29792 37895 ft 444 kts 350°
2026-05-07 11:16 18.07209 78.28951 37894 ft 444 kts 350°
2026-05-07 11:16 18.13344 78.28102 37859 ft 445 kts 349°
2026-05-07 11:17 18.19488 78.27242 37866 ft 446 kts 349°
2026-05-07 11:17 18.25647 78.26384 37869 ft 446 kts 349°
2026-05-07 11:18 18.31798 78.25526 37878 ft 446 kts 349°
2026-05-07 11:18 18.37907 78.24676 37876 ft 446 kts 349°
2026-05-07 11:19 18.44074 78.23819 37880 ft 446 kts 349°
2026-05-07 11:19 18.50229 78.22965 37865 ft 446 kts 349°
2026-05-07 11:20 18.56369 78.22115 37867 ft 446 kts 349°
2026-05-07 11:20 18.62518 78.21252 37868 ft 446 kts 349°
2026-05-07 11:21 18.68667 78.20389 37860 ft 446 kts 349°
2026-05-07 11:21 18.74819 78.19532 37864 ft 446 kts 349°
2026-05-07 11:22 18.80929 78.18679 37867 ft 446 kts 349°
2026-05-07 11:22 18.87080 78.17816 37859 ft 446 kts 349°
2026-05-07 11:23 18.93230 78.16953 37855 ft 445 kts 349°